owner,sensor,date,latitude,longitude,vertical_datum,sea_water_temperature,qcFlag
Walter,ioos:station:wmo:42896:2,2021-02-01T00:05:00Z,28.1000,-89.9753,30.0,22.2,11111222
Walter,ioos:station:wmo:42896:2,2021-02-01T00:15:00Z,28.1000,-89.9753,30.0,22.3,11111222
Walter,ioos:station:wmo:42896:2,2021-02-01T00:25:00Z,28.1000,-89.9753,30.0,22.3,11111222
Walter,ioos:station:wmo:42896:2,2021-02-01T00:35:00Z,28.1000,-89.9753,30.0,22.4,11111222
Walter,ioos:station:wmo:42896:2,2021-02-01T00:45:00Z,28.1000,-89.9753,30.0,22.4,11111222
Walter,ioos:station:wmo:42896:2,2021-02-01T00:55:00Z,28.1000,-89.9753,30.0,22.4,11111222
Walter,ioos:station:wmo:42896:2,2021-02-01T01:05:00Z,28.1000,-89.9753,30.0,22.6,11111222
Walter,ioos:station:wmo:42896:2,2021-02-01T01:15:00Z,28.1000,-89.9753,30.0,22.6,11111222
Walter,ioos:station:wmo:42896:2,2021-02-01T01:25:00Z,28.1000,-89.9753,30.0,22.6,11111222
Walter,ioos:station:wmo:42896:2,2021-02-01T01:35:00Z,28.1000,-89.9753,30.0,22.6,11111222
Walter,ioos:station:wmo:42896:2,2021-02-01T01:45:00Z,28.1000,-89.9753,30.0,22.7,11111222
Walter,ioos:station:wmo:42896:2,2021-02-01T01:55:00Z,28.1000,-89.9753,30.0,22.6,11111222
Walter,ioos:station:wmo:42896:2,2021-02-01T02:05:00Z,28.1000,-89.9753,30.0,22.7,11111222
Walter,ioos:station:wmo:42896:2,2021-02-01T02:15:00Z,28.1000,-89.9753,30.0,22.6,11111222
Walter,ioos:station:wmo:42896:2,2021-02-01T23:25:00Z,28.1000,-89.9753,30.0,22.7,11111222
Walter,ioos:station:wmo:42896:2,2021-02-01T23:35:00Z,28.1000,-89.9753,30.0,22.8,11111222
Walter,ioos:station:wmo:42896:2,2021-02-01T23:45:00Z,28.1000,-89.9753,30.0,22.9,11111222
Walter,ioos:station:wmo:42896:2,2021-02-01T23:55:00Z,28.1000,-89.9753,30.0,23.0,11111222
Walter,ioos:station:wmo:42896:2,2021-02-02T00:05:00Z,28.1000,-89.9753,30.0,23.0,11111222
Walter,ioos:station:wmo:42896:2,2021-02-02T00:15:00Z,28.1000,-89.9753,30.0,23.0,11111222
Walter,ioos:station:wmo:42896:2,2021-02-02T00:25:00Z,28.1000,-89.9753,30.0,23.0,11111222
Walter,ioos:station:wmo:42896:2,2021-02-02T00:35:00Z,28.1000,-89.9753,30.0,23.0,11111222
Walter,ioos:station:wmo:42896:2,2021-02-02T00:45:00Z,28.1000,-89.9753,30.0,23.0,11111222
Walter,ioos:station:wmo:42896:2,2021-02-02T00:55:00Z,28.1000,-89.9753,30.0,22.9,11111222
Walter,ioos:station:wmo:42896:2,2021-02-02T01:05:00Z,28.1000,-89.9753,30.0,22.9,11111222
Walter,ioos:station:wmo:42896:2,2021-02-02T01:15:00Z,28.1000,-89.9753,30.0,22.9,11111222
Walter,ioos:station:wmo:42896:2,2021-02-02T01:25:00Z,28.1000,-89.9753,30.0,22.8,11111222
Walter,ioos:station:wmo:42896:2,2021-02-02T01:35:00Z,28.1000,-89.9753,30.0,22.8,11111222
Walter,ioos:station:wmo:42896:2,2021-02-02T01:45:00Z,28.1000,-89.9753,30.0,22.8,11111222
Walter,ioos:station:wmo:42896:2,2021-02-02T01:55:00Z,28.1000,-89.9753,30.0,22.7,11111222
Walter,ioos:station:wmo:42896:2,2021-02-02T02:05:00Z,28.1000,-89.9753,30.0,22.7,11111222
Walter,ioos:station:wmo:42896:2,2021-02-02T02:15:00Z,28.1000,-89.9753,30.0,22.7,11111222
Walter,ioos:station:wmo:42896:2,2021-02-02T02:25:00Z,28.1000,-89.9753,30.0,22.6,11111222
Walter,ioos:station:wmo:42896:2,2021-02-02T02:35:00Z,28.1000,-89.9753,30.0,22.6,11111222
Walter,ioos:station:wmo:42896:2,2021-02-02T02:45:00Z,28.1000,-89.9753,30.0,22.6,11111222
Walter,ioos:station:wmo:42896:2,2021-02-02T02:55:00Z,28.1000,-89.9753,30.0,21.9,11111222
Walter,ioos:station:wmo:42896:2,2021-02-02T03:05:00Z,28.1000,-89.9753,30.0,21.5,11111222
Walter,ioos:station:wmo:42896:2,2021-02-02T03:15:00Z,28.1000,-89.9753,30.0,21.4,11111222
Walter,ioos:station:wmo:42896:2,2021-02-02T03:25:00Z,28.1000,-89.9753,30.0,21.5,11111222
Walter,ioos:station:wmo:42896:2,2021-02-02T03:35:00Z,28.1000,-89.9753,30.0,21.9,11111222
Walter,ioos:station:wmo:42896:2,2021-02-02T03:45:00Z,28.1000,-89.9753,30.0,22.0,11111222
Walter,ioos:station:wmo:42896:2,2021-02-02T03:55:00Z,28.1000,-89.9753,30.0,21.9,11111222
Walter,ioos:station:wmo:42896:2,2021-02-02T04:05:00Z,28.1000,-89.9753,30.0,21.9,11111222
Walter,ioos:station:wmo:42896:2,2021-02-02T04:15:00Z,28.1000,-89.9753,30.0,22.0,11111222
Walter,ioos:station:wmo:42896:2,2021-02-02T04:25:00Z,28.1000,-89.9753,30.0,22.0,11111222
Walter,ioos:station:wmo:42896:2,2021-02-02T04:35:00Z,28.1000,-89.9753,30.0,21.8,11111222
Walter,ioos:station:wmo:42896:2,2021-02-02T04:45:00Z,28.1000,-89.9753,30.0,21.9,11111222
Walter,ioos:station:wmo:42896:2,2021-02-02T04:55:00Z,28.1000,-89.9753,30.0,21.9,11111222
Walter,ioos:station:wmo:42896:2,2021-02-02T05:05:00Z,28.1000,-89.9753,30.0,21.9,11111222
Walter,ioos:station:wmo:42896:2,2021-02-02T05:15:00Z,28.1000,-89.9753,30.0,22.0,11111222
Walter,ioos:station:wmo:42896:2,2021-02-02T05:25:00Z,28.1000,-89.9753,30.0,22.0,11111222
Walter,ioos:station:wmo:42896:2,2021-02-02T05:35:00Z,28.1000,-89.9753,30.0,22.1,11111222
Walter,ioos:station:wmo:42896:2,2021-02-02T05:45:00Z,28.1000,-89.9753,30.0,22.1,11111222
Walter,ioos:station:wmo:42896:2,2021-02-02T05:55:00Z,28.1000,-89.9753,30.0,22.1,11111222
Walter,ioos:station:wmo:42896:2,2021-02-02T06:05:00Z,28.1000,-89.9753,30.0,22.1,11111222
Walter,ioos:station:wmo:42896:2,2021-02-02T06:15:00Z,28.1000,-89.9753,30.0,22.1,11111222
Walter,ioos:station:wmo:42896:2,2021-02-02T06:25:00Z,28.1000,-89.9753,30.0,22.2,11111222
Walter,ioos:station:wmo:42896:2,2021-02-02T06:35:00Z,28.1000,-89.9753,30.0,22.2,11111222
Walter,ioos:station:wmo:42896:2,2021-02-02T06:45:00Z,28.1000,-89.9753,30.0,22.2,11111222
Walter,ioos:station:wmo:42896:2,2021-02-02T06:55:00Z,28.1000,-89.9753,30.0,22.2,11111222
Walter,ioos:station:wmo:42896:2,2021-02-02T07:05:00Z,28.1000,-89.9753,30.0,22.2,11111222
Walter,ioos:station:wmo:42896:2,2021-02-02T07:15:00Z,28.1000,-89.9753,30.0,22.2,11111222
Walter,ioos:station:wmo:42896:2,2021-02-02T07:25:00Z,28.1000,-89.9753,30.0,22.1,11111222
Walter,ioos:station:wmo:42896:2,2021-02-02T07:35:00Z,28.1000,-89.9753,30.0,22.1,11111222
Walter,ioos:station:wmo:42896:2,2021-02-03T06:45:00Z,28.1000,-89.9753,30.0,22.3,11111222
Walter,ioos:station:wmo:42896:2,2021-02-03T06:55:00Z,28.1000,-89.9753,30.0,22.3,11111222
Walter,ioos:station:wmo:42896:2,2021-02-03T07:05:00Z,28.1000,-89.9753,30.0,22.3,11111222
Walter,ioos:station:wmo:42896:2,2021-02-03T07:15:00Z,28.1000,-89.9753,30.0,22.3,11111222
Walter,ioos:station:wmo:42896:2,2021-02-03T07:25:00Z,28.1000,-89.9753,30.0,22.3,11111222
Walter,ioos:station:wmo:42896:2,2021-02-03T07:35:00Z,28.1000,-89.9753,30.0,22.3,11111222
Walter,ioos:station:wmo:42896:2,2021-02-03T07:45:00Z,28.1000,-89.9753,30.0,22.3,11111222
Walter,ioos:station:wmo:42896:2,2021-02-03T07:55:00Z,28.1000,-89.9753,30.0,22.3,11111222
Walter,ioos:station:wmo:42896:2,2021-02-03T08:05:00Z,28.1000,-89.9753,30.0,22.2,11111222
Walter,ioos:station:wmo:42896:2,2021-02-03T08:15:00Z,28.1000,-89.9753,30.0,22.2,11111222
Walter,ioos:station:wmo:42896:2,2021-02-03T08:25:00Z,28.1000,-89.9753,30.0,22.2,11111222
Walter,ioos:station:wmo:42896:2,2021-02-03T08:35:00Z,28.1000,-89.9753,30.0,22.2,11111222
Walter,ioos:station:wmo:42896:2,2021-02-03T08:45:00Z,28.1000,-89.9753,30.0,22.2,11111222
Walter,ioos:station:wmo:42896:2,2021-02-03T08:55:00Z,28.1000,-89.9753,30.0,22.2,11111222
Walter,ioos:station:wmo:42896:2,2021-02-03T09:05:00Z,28.1000,-89.9753,30.0,22.2,11111222
Walter,ioos:station:wmo:42896:2,2021-02-03T09:15:00Z,28.1000,-89.9753,30.0,22.2,11111222
Walter,ioos:station:wmo:42896:2,2021-02-03T09:25:00Z,28.1000,-89.9753,30.0,22.1,11111222
Walter,ioos:station:wmo:42896:2,2021-02-03T09:35:00Z,28.1000,-89.9753,30.0,22.1,11111222
Walter,ioos:station:wmo:42896:2,2021-02-03T09:45:00Z,28.1000,-89.9753,30.0,22.1,11111222
Walter,ioos:station:wmo:42896:2,2021-02-03T09:55:00Z,28.1000,-89.9753,30.0,22.1,11111222
Walter,ioos:station:wmo:42896:2,2021-02-03T10:05:00Z,28.1000,-89.9753,30.0,22.0,11111222
Walter,ioos:station:wmo:42896:2,2021-02-03T10:15:00Z,28.1000,-89.9753,30.0,21.9,11111222
Walter,ioos:station:wmo:42896:2,2021-02-03T10:25:00Z,28.1000,-89.9753,30.0,21.8,11111222
Walter,ioos:station:wmo:42896:2,2021-02-03T10:35:00Z,28.1000,-89.9753,30.0,21.9,11111222
Walter,ioos:station:wmo:42896:2,2021-02-03T10:45:00Z,28.1000,-89.9753,30.0,21.7,11111222
Walter,ioos:station:wmo:42896:2,2021-02-03T10:55:00Z,28.1000,-89.9753,30.0,21.7,11111222
Walter,ioos:station:wmo:42896:2,2021-02-03T11:05:00Z,28.1000,-89.9753,30.0,21.6,11111222
Walter,ioos:station:wmo:42896:2,2021-02-03T11:15:00Z,28.1000,-89.9753,30.0,21.5,11111222
Walter,ioos:station:wmo:42896:2,2021-02-03T11:25:00Z,28.1000,-89.9753,30.0,21.5,11111222
Walter,ioos:station:wmo:42896:2,2021-02-03T11:35:00Z,28.1000,-89.9753,30.0,21.5,11111222
Walter,ioos:station:wmo:42896:2,2021-02-03T11:45:00Z,28.1000,-89.9753,30.0,21.6,11111222
Walter,ioos:station:wmo:42896:2,2021-02-03T11:55:00Z,28.1000,-89.9753,30.0,21.6,11111222
Walter,ioos:station:wmo:42896:2,2021-02-03T12:05:00Z,28.1000,-89.9753,30.0,21.6,11111222
Walter,ioos:station:wmo:42896:2,2021-02-03T12:15:00Z,28.1000,-89.9753,30.0,21.5,11111222
Walter,ioos:station:wmo:42896:2,2021-02-03T12:25:00Z,28.1000,-89.9753,30.0,21.5,11111222
Walter,ioos:station:wmo:42896:2,2021-02-03T12:35:00Z,28.1000,-89.9753,30.0,21.5,11111222
Walter,ioos:station:wmo:42896:2,2021-02-03T12:45:00Z,28.1000,-89.9753,30.0,21.5,11111222
Walter,ioos:station:wmo:42896:2,2021-02-03T12:55:00Z,28.1000,-89.9753,30.0,21.5,11111222
Walter,ioos:station:wmo:42896:2,2021-02-03T13:05:00Z,28.1000,-89.9753,30.0,21.5,11111222
Walter,ioos:station:wmo:42896:2,2021-02-03T13:15:00Z,28.1000,-89.9753,30.0,21.5,11111222
Walter,ioos:station:wmo:42896:2,2021-02-03T13:25:00Z,28.1000,-89.9753,30.0,21.5,11111222
Walter,ioos:station:wmo:42896:2,2021-02-03T13:35:00Z,28.1000,-89.9753,30.0,21.5,11111222
Walter,ioos:station:wmo:42896:2,2021-02-03T13:45:00Z,28.1000,-89.9753,30.0,21.4,11111222
Walter,ioos:station:wmo:42896:2,2021-02-03T13:55:00Z,28.1000,-89.9753,30.0,21.4,11111222
Walter,ioos:station:wmo:42896:2,2021-02-03T14:05:00Z,28.1000,-89.9753,30.0,21.3,11111222
Walter,ioos:station:wmo:42896:2,2021-02-03T14:15:00Z,28.1000,-89.9753,30.0,21.3,11111222
Walter,ioos:station:wmo:42896:2,2021-02-03T14:25:00Z,28.1000,-89.9753,30.0,21.4,11111222
Walter,ioos:station:wmo:42896:2,2021-02-03T14:35:00Z,28.1000,-89.9753,30.0,21.4,11111222
Walter,ioos:station:wmo:42896:2,2021-02-03T14:45:00Z,28.1000,-89.9753,30.0,21.4,11111222
Walter,ioos:station:wmo:42896:2,2021-02-03T14:55:00Z,28.1000,-89.9753,30.0,21.4,11111222
Walter,ioos:station:wmo:42896:2,2021-02-03T15:05:00Z,28.1000,-89.9753,30.0,21.4,11111222
Walter,ioos:station:wmo:42896:2,2021-02-03T15:15:00Z,28.1000,-89.9753,30.0,21.4,11111222
Walter,ioos:station:wmo:42896:2,2021-02-03T15:25:00Z,28.1000,-89.9753,30.0,21.5,11111222
Walter,ioos:station:wmo:42896:2,2021-02-03T15:35:00Z,28.1000,-89.9753,30.0,21.5,11111222
Walter,ioos:station:wmo:42896:2,2021-02-03T15:45:00Z,28.1000,-89.9753,30.0,21.5,11111222
Walter,ioos:station:wmo:42896:2,2021-02-03T15:55:00Z,28.1000,-89.9753,30.0,21.5,11111222
Walter,ioos:station:wmo:42896:2,2021-02-03T16:05:00Z,28.1000,-89.9753,30.0,21.5,11111222
Walter,ioos:station:wmo:42896:2,2021-02-03T16:15:00Z,28.1000,-89.9753,30.0,21.5,11111222
Walter,ioos:station:wmo:42896:2,2021-02-03T16:25:00Z,28.1000,-89.9753,30.0,21.5,11111222
Walter,ioos:station:wmo:42896:2,2021-02-03T16:35:00Z,28.1000,-89.9753,30.0,21.5,11111222
Walter,ioos:station:wmo:42896:2,2021-02-03T16:46:00Z,28.1000,-89.9753,30.0,21.5,11111222
Walter,ioos:station:wmo:42896:2,2021-02-04T15:26:00Z,28.1000,-89.9753,30.0,22.9,11111222
Walter,ioos:station:wmo:42896:2,2021-02-04T15:27:00Z,28.1000,-89.9753,30.0,22.9,11111222
Walter,ioos:station:wmo:42896:2,2021-02-04T15:37:00Z,28.1000,-89.9753,30.0,22.9,11111222
Walter,ioos:station:wmo:42896:2,2021-02-04T15:47:00Z,28.1000,-89.9753,30.0,23.0,11111222
Walter,ioos:station:wmo:42896:2,2021-02-04T15:57:00Z,28.1000,-89.9753,30.0,23.0,11111222
Walter,ioos:station:wmo:42896:2,2021-02-04T16:07:00Z,28.1000,-89.9753,30.0,23.0,11111222
Walter,ioos:station:wmo:42896:2,2021-02-04T16:17:00Z,28.1000,-89.9753,30.0,23.0,11111222
Walter,ioos:station:wmo:42896:2,2021-02-04T16:27:00Z,28.1000,-89.9753,30.0,23.0,11111222
Walter,ioos:station:wmo:42896:2,2021-02-04T16:37:00Z,28.1000,-89.9753,30.0,23.0,11111222
Walter,ioos:station:wmo:42896:2,2021-02-04T16:47:00Z,28.1000,-89.9753,30.0,23.0,11111222
Walter,ioos:station:wmo:42896:2,2021-02-04T16:57:00Z,28.1000,-89.9753,30.0,23.0,11111222
Walter,ioos:station:wmo:42896:2,2021-02-04T17:07:00Z,28.1000,-89.9753,30.0,23.0,11111222
Walter,ioos:station:wmo:42896:2,2021-02-04T17:17:00Z,28.1000,-89.9753,30.0,23.0,11111222
Walter,ioos:station:wmo:42896:2,2021-02-04T17:27:00Z,28.1000,-89.9753,30.0,23.0,11111222
Walter,ioos:station:wmo:42896:2,2021-02-04T17:37:00Z,28.1000,-89.9753,30.0,23.0,11111222
Walter,ioos:station:wmo:42896:2,2021-02-04T17:47:00Z,28.1000,-89.9753,30.0,23.0,11111222
Walter,ioos:station:wmo:42896:2,2021-02-04T17:57:00Z,28.1000,-89.9753,30.0,23.0,11111222
Walter,ioos:station:wmo:42896:2,2021-02-04T18:07:00Z,28.1000,-89.9753,30.0,23.0,11111222
Walter,ioos:station:wmo:42896:2,2021-02-04T18:17:00Z,28.1000,-89.9753,30.0,23.0,11111222
Walter,ioos:station:wmo:42896:2,2021-02-04T18:27:00Z,28.1000,-89.9753,30.0,23.0,11111222
Walter,ioos:station:wmo:42896:2,2021-02-04T18:37:00Z,28.1000,-89.9753,30.0,23.0,11111222
Walter,ioos:station:wmo:42896:2,2021-02-04T18:50:00Z,28.1000,-89.9753,30.0,23.0,11111222
Walter,ioos:station:wmo:42896:2,2021-02-04T20:04:00Z,28.1000,-89.9753,30.0,23.0,11111222
Walter,ioos:station:wmo:42896:2,2021-02-04T20:14:00Z,28.1000,-89.9753,30.0,23.1,11111222
Walter,ioos:station:wmo:42896:2,2021-02-04T20:24:00Z,28.1000,-89.9753,30.0,23.1,11111222
Walter,ioos:station:wmo:42896:2,2021-02-04T20:34:00Z,28.1000,-89.9753,30.0,23.1,11111222
Walter,ioos:station:wmo:42896:2,2021-02-04T20:44:00Z,28.1000,-89.9753,30.0,23.1,11111222
Walter,ioos:station:wmo:42896:2,2021-02-04T20:54:00Z,28.1000,-89.9753,30.0,23.1,11111222
Walter,ioos:station:wmo:42896:2,2021-02-04T21:04:00Z,28.1000,-89.9753,30.0,23.1,11111222
Walter,ioos:station:wmo:42896:2,2021-02-04T21:14:00Z,28.1000,-89.9753,30.0,23.1,11111222
Walter,ioos:station:wmo:42896:2,2021-02-04T21:24:00Z,28.1000,-89.9753,30.0,23.1,11111222
Walter,ioos:station:wmo:42896:2,2021-02-04T21:34:00Z,28.1000,-89.9753,30.0,23.1,11111222
Walter,ioos:station:wmo:42896:2,2021-02-04T21:44:00Z,28.1000,-89.9753,30.0,23.2,11111222
Walter,ioos:station:wmo:42896:2,2021-02-04T21:54:00Z,28.1000,-89.9753,30.0,23.2,11111222
Walter,ioos:station:wmo:42896:2,2021-02-04T22:04:00Z,28.1000,-89.9753,30.0,23.2,11111222
Walter,ioos:station:wmo:42896:2,2021-02-04T22:14:00Z,28.1000,-89.9753,30.0,23.2,11111222
Walter,ioos:station:wmo:42896:2,2021-02-04T22:24:00Z,28.1000,-89.9753,30.0,23.2,11111222
Walter,ioos:station:wmo:42896:2,2021-02-04T22:34:00Z,28.1000,-89.9753,30.0,23.2,11111222
Walter,ioos:station:wmo:42896:2,2021-02-04T22:44:00Z,28.1000,-89.9753,30.0,23.2,11111222
Walter,ioos:station:wmo:42896:2,2021-02-04T22:54:00Z,28.1000,-89.9753,30.0,23.2,11111222
Walter,ioos:station:wmo:42896:2,2021-02-04T23:04:00Z,28.1000,-89.9753,30.0,23.2,11111222
Walter,ioos:station:wmo:42896:2,2021-02-04T23:14:00Z,28.1000,-89.9753,30.0,23.2,11111222
Walter,ioos:station:wmo:42896:2,2021-02-04T23:24:00Z,28.1000,-89.9753,30.0,23.2,11111222
Walter,ioos:station:wmo:42896:2,2021-02-04T23:34:00Z,28.1000,-89.9753,30.0,23.2,11111222
Walter,ioos:station:wmo:42896:2,2021-02-04T23:44:00Z,28.1000,-89.9753,30.0,23.1,11111222
Walter,ioos:station:wmo:42896:2,2021-02-04T23:54:00Z,28.1000,-89.9753,30.0,23.1,11111222
Walter,ioos:station:wmo:42896:2,2021-02-05T00:04:00Z,28.1000,-89.9753,30.0,23.1,11111222
Walter,ioos:station:wmo:42896:2,2021-02-05T00:14:00Z,28.1000,-89.9753,30.0,23.2,11111222
Walter,ioos:station:wmo:42896:2,2021-02-05T00:24:00Z,28.1000,-89.9753,30.0,23.2,11111222
Walter,ioos:station:wmo:42896:2,2021-02-05T00:34:00Z,28.1000,-89.9753,30.0,23.2,11111222
Walter,ioos:station:wmo:42896:2,2021-02-05T00:44:00Z,28.1000,-89.9753,30.0,23.2,11111222
Walter,ioos:station:wmo:42896:2,2021-02-05T00:54:00Z,28.1000,-89.9753,30.0,23.2,11111222
Walter,ioos:station:wmo:42896:2,2021-02-05T01:04:00Z,28.1000,-89.9753,30.0,23.2,11111222
Walter,ioos:station:wmo:42896:2,2021-02-05T01:14:00Z,28.1000,-89.9753,30.0,23.2,11111222
Walter,ioos:station:wmo:42896:2,2021-02-05T01:24:00Z,28.1000,-89.9753,30.0,23.2,11111222
Walter,ioos:station:wmo:42896:2,2021-02-05T01:34:00Z,28.1000,-89.9753,30.0,23.2,11111222
Walter,ioos:station:wmo:42896:2,2021-02-05T01:44:00Z,28.1000,-89.9753,30.0,23.2,11111222
Walter,ioos:station:wmo:42896:2,2021-02-05T01:54:00Z,28.1000,-89.9753,30.0,23.2,11111222
Walter,ioos:station:wmo:42896:2,2021-02-05T02:04:00Z,28.1000,-89.9753,30.0,23.2,11111222
Walter,ioos:station:wmo:42896:2,2021-02-05T02:14:00Z,28.1000,-89.9753,30.0,23.2,11111222
Walter,ioos:station:wmo:42896:2,2021-02-05T02:24:00Z,28.1000,-89.9753,30.0,23.2,11111222
Walter,ioos:station:wmo:42896:2,2021-02-05T02:34:00Z,28.1000,-89.9753,30.0,23.2,11111222
Walter,ioos:station:wmo:42896:2,2021-02-05T02:44:00Z,28.1000,-89.9753,30.0,23.2,11111222
Walter,ioos:station:wmo:42896:2,2021-02-05T02:54:00Z,28.1000,-89.9753,30.0,23.2,11111222
Walter,ioos:station:wmo:42896:2,2021-02-05T03:04:00Z,28.1000,-89.9753,30.0,23.3,11111222
Walter,ioos:station:wmo:42896:2,2021-02-05T03:14:00Z,28.1000,-89.9753,30.0,23.3,11111222
Walter,ioos:station:wmo:42896:2,2021-02-05T03:24:00Z,28.1000,-89.9753,30.0,23.3,11111222
Walter,ioos:station:wmo:42896:2,2021-02-05T03:34:00Z,28.1000,-89.9753,30.0,23.3,11111222
Walter,ioos:station:wmo:42896:2,2021-02-05T03:44:00Z,28.1000,-89.9753,30.0,23.3,11111222
Walter,ioos:station:wmo:42896:2,2021-02-05T03:54:00Z,28.1000,-89.9753,30.0,23.3,11111222
Walter,ioos:station:wmo:42896:2,2021-02-05T04:04:00Z,28.1000,-89.9753,30.0,23.3,11111222
Walter,ioos:station:wmo:42896:2,2021-02-05T04:14:00Z,28.1000,-89.9753,30.0,23.3,11111222
Walter,ioos:station:wmo:42896:2,2021-02-05T04:24:00Z,28.1000,-89.9753,30.0,23.3,11111222
Walter,ioos:station:wmo:42896:2,2021-02-05T04:34:00Z,28.1000,-89.9753,30.0,23.2,11111222
Walter,ioos:station:wmo:42896:2,2021-02-05T04:44:00Z,28.1000,-89.9753,30.0,23.2,11111222
Walter,ioos:station:wmo:42896:2,2021-02-05T04:54:00Z,28.1000,-89.9753,30.0,23.2,11111222
Walter,ioos:station:wmo:42896:2,2021-02-05T05:04:00Z,28.1000,-89.9753,30.0,23.2,11111222
Walter,ioos:station:wmo:42896:2,2021-02-05T05:14:00Z,28.1000,-89.9753,30.0,23.2,11111222
Walter,ioos:station:wmo:42896:2,2021-02-05T05:24:00Z,28.1000,-89.9753,30.0,23.2,11111222
Walter,ioos:station:wmo:42896:2,2021-02-05T05:34:00Z,28.1000,-89.9753,30.0,23.3,11111222
Walter,ioos:station:wmo:42896:2,2021-02-05T05:44:00Z,28.1000,-89.9753,30.0,23.3,11111222
Walter,ioos:station:wmo:42896:2,2021-02-05T05:54:00Z,28.1000,-89.9753,30.0,23.2,11111222
Walter,ioos:station:wmo:42896:2,2021-02-05T06:04:00Z,28.1000,-89.9753,30.0,23.2,11111222
Walter,ioos:station:wmo:42896:2,2021-02-05T06:14:00Z,28.1000,-89.9753,30.0,23.2,11111222
Walter,ioos:station:wmo:42896:2,2021-02-05T06:24:00Z,28.1000,-89.9753,30.0,23.2,11111222
Walter,ioos:station:wmo:42896:2,2021-02-05T06:34:00Z,28.1000,-89.9753,30.0,23.2,11111222
Walter,ioos:station:wmo:42896:2,2021-02-05T06:44:00Z,28.1000,-89.9753,30.0,23.2,11111222
Walter,ioos:station:wmo:42896:2,2021-02-05T06:54:00Z,28.1000,-89.9753,30.0,23.2,11111222
Walter,ioos:station:wmo:42896:2,2021-02-05T07:04:00Z,28.1000,-89.9753,30.0,23.2,11111222
Walter,ioos:station:wmo:42896:2,2021-02-05T07:14:00Z,28.1000,-89.9753,30.0,23.2,11111222
Walter,ioos:station:wmo:42896:2,2021-02-05T07:24:00Z,28.1000,-89.9753,30.0,23.2,11111222
Walter,ioos:station:wmo:42896:2,2021-02-05T07:34:00Z,28.1000,-89.9753,30.0,23.1,11111222
Walter,ioos:station:wmo:42896:2,2021-02-05T07:44:00Z,28.1000,-89.9753,30.0,23.1,11111222
Walter,ioos:station:wmo:42896:2,2021-02-05T07:54:00Z,28.1000,-89.9753,30.0,23.1,11111222
Walter,ioos:station:wmo:42896:2,2021-02-05T08:04:00Z,28.1000,-89.9753,30.0,23.1,11111222
Walter,ioos:station:wmo:42896:2,2021-02-05T08:14:00Z,28.1000,-89.9753,30.0,23.1,11111222
Walter,ioos:station:wmo:42896:2,2021-02-05T08:24:00Z,28.1000,-89.9753,30.0,23.1,11111222
Walter,ioos:station:wmo:42896:2,2021-02-05T08:34:00Z,28.1000,-89.9753,30.0,23.1,11111222
Walter,ioos:station:wmo:42896:2,2021-02-05T08:44:00Z,28.1000,-89.9753,30.0,23.1,11111222
Walter,ioos:station:wmo:42896:2,2021-02-05T08:54:00Z,28.1000,-89.9753,30.0,23.1,11111222
Walter,ioos:station:wmo:42896:2,2021-02-05T09:04:00Z,28.1000,-89.9753,30.0,23.1,11111222
Walter,ioos:station:wmo:42896:2,2021-02-05T09:14:00Z,28.1000,-89.9753,30.0,23.1,11111222
Walter,ioos:station:wmo:42896:2,2021-02-05T09:24:00Z,28.1000,-89.9753,30.0,23.1,11111222
Walter,ioos:station:wmo:42896:2,2021-02-05T09:34:00Z,28.1000,-89.9753,30.0,23.1,11111222
Walter,ioos:station:wmo:42896:2,2021-02-05T09:44:00Z,28.1000,-89.9753,30.0,23.1,11111222
Walter,ioos:station:wmo:42896:2,2021-02-05T09:54:00Z,28.1000,-89.9753,30.0,23.1,11111222
Walter,ioos:station:wmo:42896:2,2021-02-05T10:04:00Z,28.1000,-89.9753,30.0,23.1,11111222
Walter,ioos:station:wmo:42896:2,2021-02-05T10:14:00Z,28.1000,-89.9753,30.0,23.1,11111222
Walter,ioos:station:wmo:42896:2,2021-02-05T10:24:00Z,28.1000,-89.9753,30.0,23.1,11111222
Walter,ioos:station:wmo:42896:2,2021-02-05T10:34:00Z,28.1000,-89.9753,30.0,23.1,11111222
Walter,ioos:station:wmo:42896:2,2021-02-05T10:44:00Z,28.1000,-89.9753,30.0,23.1,11111222
Walter,ioos:station:wmo:42896:2,2021-02-05T10:54:00Z,28.1000,-89.9753,30.0,23.1,11111222
Walter,ioos:station:wmo:42896:2,2021-02-05T11:04:00Z,28.1000,-89.9753,30.0,23.1,11111222
Walter,ioos:station:wmo:42896:2,2021-02-05T11:14:00Z,28.1000,-89.9753,30.0,23.1,11111222
Walter,ioos:station:wmo:42896:2,2021-02-05T11:24:00Z,28.1000,-89.9753,30.0,23.1,11111222
Walter,ioos:station:wmo:42896:2,2021-02-05T11:34:00Z,28.1000,-89.9753,30.0,23.1,11111222
Walter,ioos:station:wmo:42896:2,2021-02-05T11:44:00Z,28.1000,-89.9753,30.0,23.1,11111222
Walter,ioos:station:wmo:42896:2,2021-02-05T11:54:00Z,28.1000,-89.9753,30.0,23.1,11111222
Walter,ioos:station:wmo:42896:2,2021-02-05T12:04:00Z,28.1000,-89.9753,30.0,23.1,11111222
Walter,ioos:station:wmo:42896:2,2021-02-05T12:14:00Z,28.1000,-89.9753,30.0,23.1,11111222
Walter,ioos:station:wmo:42896:2,2021-02-05T12:24:00Z,28.1000,-89.9753,30.0,23.1,11111222
Walter,ioos:station:wmo:42896:2,2021-02-05T12:34:00Z,28.1000,-89.9753,30.0,23.0,11111222
Walter,ioos:station:wmo:42896:2,2021-02-05T12:44:00Z,28.1000,-89.9753,30.0,23.0,11111222
Walter,ioos:station:wmo:42896:2,2021-02-05T12:54:00Z,28.1000,-89.9753,30.0,23.0,11111222
Walter,ioos:station:wmo:42896:2,2021-02-05T13:04:00Z,28.1000,-89.9753,30.0,23.0,11111222
Walter,ioos:station:wmo:42896:2,2021-02-05T13:14:00Z,28.1000,-89.9753,30.0,22.8,11111222
Walter,ioos:station:wmo:42896:2,2021-02-05T13:24:00Z,28.1000,-89.9753,30.0,22.7,11111222
Walter,ioos:station:wmo:42896:2,2021-02-05T13:34:00Z,28.1000,-89.9753,30.0,22.7,11111222
Walter,ioos:station:wmo:42896:2,2021-02-05T13:44:00Z,28.1000,-89.9753,30.0,22.8,11111222
Walter,ioos:station:wmo:42896:2,2021-02-05T13:54:00Z,28.1000,-89.9753,30.0,22.8,11111222
Walter,ioos:station:wmo:42896:2,2021-02-05T14:04:00Z,28.1000,-89.9753,30.0,22.7,11111222
Walter,ioos:station:wmo:42896:2,2021-02-05T14:14:00Z,28.1000,-89.9753,30.0,22.6,11111222
Walter,ioos:station:wmo:42896:2,2021-02-05T14:24:00Z,28.1000,-89.9753,30.0,22.7,11111222
Walter,ioos:station:wmo:42896:2,2021-02-05T14:34:00Z,28.1000,-89.9753,30.0,22.7,11111222
Walter,ioos:station:wmo:42896:2,2021-02-05T14:44:00Z,28.1000,-89.9753,30.0,22.7,11111222
Walter,ioos:station:wmo:42896:2,2021-02-05T14:54:00Z,28.1000,-89.9753,30.0,22.7,11111222
Walter,ioos:station:wmo:42896:2,2021-02-05T15:04:00Z,28.1000,-89.9753,30.0,22.7,11111222
Walter,ioos:station:wmo:42896:2,2021-02-05T15:14:00Z,28.1000,-89.9753,30.0,22.7,11111222
Walter,ioos:station:wmo:42896:2,2021-02-05T15:24:00Z,28.1000,-89.9753,30.0,22.7,11111222
Walter,ioos:station:wmo:42896:2,2021-02-05T15:34:00Z,28.1000,-89.9753,30.0,22.6,11111222